"Period start","avg(HW err(1)/warn(2) (#))","avg(Visibility (m))","avg(Weather code (#))","avg(Precip intensity (mm/h))","min(HW err(1)/warn(2) (#))","max(HW err(1)/warn(2) (#))","std(HW err(1)/warn(2) (#))","med(HW err(1)/warn(2) (#))","min(Visibility (m))","max(Visibility (m))","std(Visibility (m))","med(Visibility (m))","min(Weather code (#))","max(Weather code (#))","std(Weather code (#))","med(Weather code (#))","min(Precip intensity (mm/h))","max(Precip intensity (mm/h))","std(Precip intensity (mm/h))","med(Precip intensity (mm/h))"
2014-03-15 00:00:00,2,28564,0,0.00,2,2,0,2,23522,36519,3451,28694,0,0,0,0,0.00,0.00,0.00,0.00
2014-03-15 00:10:00,2,36982,0,0.00,2,2,0,2,22752,50000,9325,38370,0,0,0,0,0.00,0.00,0.00,0.00
2014-03-15 00:20:00,2,29713,0,0.00,2,2,0,2,21122,39481,5611,29362,0,0,0,0,0.00,0.00,0.00,0.00
2014-03-15 00:30:00,2,27991,0,0.00,2,2,0,2,17678,34451,4464,28800,0,0,0,0,0.00,0.00,0.00,0.00
2014-03-15 00:40:00,2,27861,0,0.00,2,2,0,2,21845,37389,4973,26711,0,0,0,0,0.00,0.00,0.00,0.00
2014-03-15 00:50:00,2,29562,0,0.00,2,2,0,2,20886,36130,5045,29525,0,0,0,0,0.00,0.00,0.00,0.00
2014-03-15 01:00:00,2,23774,0,0.00,2,2,0,2,17249,30567,4251,24099,0,0,0,0,0.00,0.00,0.00,0.00
2014-03-15 01:10:00,2,28406,0,0.00,2,2,0,2,17238,36631,6549,29566,0,0,0,0,0.00,0.00,0.00,0.00
2014-03-15 01:20:00,2,23395,0,0.00,2,2,0,2,14486,34753,6300,23352,0,0,0,0,0.00,0.00,0.00,0.00
2014-03-15 01:30:00,2,28636,0,0.00,2,2,0,2,17043,41967,8492,27468,0,0,0,0,0.00,0.00,0.00,0.00
2014-03-15 01:40:00,2,28368,0,0.00,2,2,0,2,19356,41815,7421,26711,0,0,0,0,0.00,0.00,0.00,0.00
2014-03-15 01:50:00,2,29527,0,0.00,2,2,0,2,16972,41396,7085,30528,0,0,0,0,0.00,0.00,0.00,0.00
2014-03-15 02:00:00,2,25597,0,0.00,2,2,0,2,17422,36032,5710,25802,0,0,0,0,0.00,0.00,0.00,0.00
2014-03-15 02:10:00,2,32112,0,0.00,2,2,0,2,20806,42104,7346,33400,0,0,0,0,0.00,0.00,0.00,0.00
2014-03-15 02:20:00,2,30988,0,0.00,2,2,0,2,18346,37984,5668,31699,0,0,0,0,0.00,0.00,0.00,0.00
2014-03-15 02:30:00,2,34673,0,0.00,2,2,0,2,21729,44210,6650,34844,0,0,0,0,0.00,0.00,0.00,0.00
2014-03-15 02:40:00,2,28269,0,0.00,2,2,0,2,17801,44363,7765,27527,0,0,0,0,0.00,0.00,0.00,0.00
2014-03-15 02:50:00,2,25924,0,0.00,2,2,0,2,19817,32897,4290,25472,0,0,0,0,0.00,0.00,0.00,0.00
2014-03-15 03:00:00,2,24121,0,0.00,2,2,0,2,18664,30268,3685,23190,0,0,0,0,0.00,0.00,0.00,0.00
2014-03-15 03:10:00,2,25386,0,0.00,2,2,0,2,18212,41921,6982,23335,0,0,0,0,0.00,0.00,0.00,0.00
2014-03-15 03:20:00,2,26268,0,0.00,2,2,0,2,17389,40575,6102,25734,0,0,0,0,0.00,0.00,0.00,0.00
2014-03-15 03:30:00,2,23408,0,0.00,2,2,0,2,17539,36338,5996,21944,0,0,0,0,0.00,0.00,0.00,0.00
2014-03-15 03:40:00,2,29618,0,0.00,2,2,0,2,20759,39369,5898,29184,0,0,0,0,0.00,0.00,0.00,0.00
2014-03-15 03:50:00,2,32987,0,0.00,2,2,0,2,26805,43303,4331,32694,0,0,0,0,0.00,0.00,0.00,0.00
2014-03-15 04:00:00,2,31090,0,0.00,2,2,0,2,22308,49598,7954,28661,0,0,0,0,0.00,0.00,0.00,0.00
2014-03-15 04:10:00,2,28355,0,0.00,2,2,0,2,19871,37970,5412,26490,0,0,0,0,0.00,0.00,0.00,0.00
2014-03-15 04:20:00,2,23877,0,0.00,2,2,0,2,16599,32342,5134,24059,0,0,0,0,0.00,0.00,0.00,0.00
2014-03-15 04:30:00,2,26035,0,0.00,2,2,0,2,17838,39988,6269,27724,0,0,0,0,0.00,0.00,0.00,0.00
2014-03-15 04:40:00,2,21790,0,0.00,2,2,0,2,14471,30287,5206,20906,0,0,0,0,0.00,0.00,0.00,0.00
2014-03-15 04:50:00,2,26353,0,0.00,2,2,0,2,19269,33592,5212,26487,0,0,0,0,0.00,0.00,0.00,0.00
2014-03-15 05:00:00,2,26584,0,0.00,2,2,0,2,20920,32239,3888,26948,0,0,0,0,0.00,0.00,0.00,0.00
2014-03-15 05:10:00,2,31012,0,0.00,2,2,0,2,18600,41028,8307,35262,0,0,0,0,0.00,0.00,0.00,0.00
2014-03-15 05:20:00,2,24971,0,0.00,2,2,0,2,16590,29938,4088,26236,0,0,0,0,0.00,0.00,0.00,0.00
2014-03-15 05:30:00,2,22308,0,0.00,2,2,0,2,12271,35851,7403,21173,0,0,0,0,0.00,0.00,0.00,0.00
2014-03-15 05:40:00,2,33765,0,0.00,2,2,0,2,25177,43082,5639,33596,0,0,0,0,0.00,0.00,0.00,0.00
2014-03-15 05:50:00,2,29040,0,0.00,2,2,0,2,14225,44402,11205,29152,0,0,0,0,0.00,0.00,0.00,0.00
2014-03-15 06:00:00,2,26389,0,0.00,2,2,0,2,17508,35599,5842,26832,0,0,0,0,0.00,0.00,0.00,0.00
2014-03-15 06:10:00,2,29577,0,0.00,2,2,0,2,16104,42315,8509,33104,0,0,0,0,0.00,0.00,0.00,0.00
2014-03-15 06:20:00,2,31259,0,0.00,2,2,0,2,26475,35593,2918,31723,0,0,0,0,0.00,0.00,0.00,0.00
2014-03-15 06:30:00,2,26313,0,0.00,2,2,0,2,19087,36056,5242,25240,0,0,0,0,0.00,0.00,0.00,0.00
2014-03-15 06:40:00,2,27825,0,0.00,2,2,0,2,23706,33719,2812,27364,0,0,0,0,0.00,0.00,0.00,0.00
2014-03-15 06:50:00,2,29819,0,0.00,2,2,0,2,22982,36510,3912,29554,0,0,0,0,0.00,0.00,0.00,0.00
2014-03-15 07:00:00,2,24321,0,0.00,2,2,0,2,20488,31152,4014,22420,0,0,0,0,0.00,0.00,0.00,0.00
2014-03-15 07:10:00,2,29014,0,0.00,2,2,0,2,18939,43367,8129,28128,0,0,0,0,0.00,0.00,0.00,0.00
2014-03-15 07:20:00,2,28905,0,0.00,2,2,0,2,17683,44644,8203,28840,0,0,0,0,0.00,0.00,0.00,0.00
2014-03-15 07:30:00,2,30896,0,0.00,2,2,0,2,24225,42964,6664,28621,0,0,0,0,0.00,0.00,0.00,0.00
2014-03-15 07:40:00,2,28297,0,0.00,2,2,0,2,18200,37645,5903,29824,0,0,0,0,0.00,0.00,0.00,0.00
2014-03-15 07:50:00,2,30680,0,0.00,2,2,0,2,23036,36592,3542,30250,0,0,0,0,0.00,0.00,0.00,0.00
2014-03-15 08:00:00,2,33802,0,0.00,2,2,0,2,24433,50000,8665,31414,0,0,0,0,0.00,0.00,0.00,0.00
2014-03-15 08:10:00,2,26114,0,0.00,2,2,0,2,18613,33319,4196,25592,0,0,0,0,0.00,0.00,0.00,0.00
2014-03-15 08:20:00,2,37907,0,0.00,2,2,0,2,29278,48781,5942,37022,0,0,0,0,0.00,0.00,0.00,0.00
2014-03-15 08:30:00,2,29934,0,0.00,2,2,0,2,24317,43101,6549,27281,0,0,0,0,0.00,0.00,0.00,0.00
2014-03-15 08:40:00,2,29781,0,0.00,2,2,0,2,25619,36634,3217,29452,0,0,0,0,0.00,0.00,0.00,0.00
2014-03-15 08:50:00,2,33149,0,0.00,2,2,0,2,27564,38187,3311,32546,0,0,0,0,0.00,0.00,0.00,0.00
2014-03-15 09:00:00,2,29225,0,0.00,2,2,0,2,26141,34360,2362,28392,0,0,0,0,0.00,0.00,0.00,0.00
2014-03-15 09:10:00,2,29926,0,0.00,2,2,0,2,27071,33083,2110,29692,0,0,0,0,0.00,0.00,0.00,0.00
2014-03-15 09:20:00,2,28448,0,0.00,2,2,0,2,23748,32642,3044,28092,0,0,0,0,0.00,0.00,0.00,0.00
2014-03-15 09:30:00,2,30251,0,0.00,2,2,0,2,25919,36388,2811,29798,0,0,0,0,0.00,0.00,0.00,0.00
2014-03-15 09:40:00,2,26447,0,0.00,2,2,0,2,23980,32467,2604,25620,0,0,0,0,0.00,0.00,0.00,0.00
2014-03-15 09:50:00,2,29870,0,0.00,2,2,0,2,24611,35991,3558,28895,0,0,0,0,0.00,0.00,0.00,0.00
2014-03-15 10:00:00,2,26716,0,0.00,2,2,0,2,24487,32224,2566,25818,0,0,0,0,0.00,0.00,0.00,0.00
2014-03-15 10:10:00,2,21766,0,0.00,2,2,0,2,19665,25777,1715,21463,0,0,0,0,0.00,0.00,0.00,0.00
2014-03-15 10:20:00,2,21839,0,0.00,2,2,0,2,19269,25136,1562,21447,0,0,0,0,0.00,0.00,0.00,0.00
2014-03-15 10:30:00,2,20331,0,0.00,2,2,0,2,18428,21868,1214,20414,0,0,0,0,0.00,0.00,0.00,0.00
2014-03-15 10:40:00,2,22166,0,0.00,2,2,0,2,20309,25204,1472,21842,0,0,0,0,0.00,0.00,0.00,0.00
2014-03-15 10:50:00,2,20058,0,0.00,2,2,0,2,18842,23482,1329,19661,0,0,0,0,0.00,0.00,0.00,0.00
2014-03-15 11:00:00,2,21876,0,0.00,2,2,0,2,19117,24941,1611,21694,0,0,0,0,0.00,0.00,0.00,0.00
2014-03-15 11:10:00,2,20877,0,0.00,2,2,0,2,18762,23441,1315,20792,0,0,0,0,0.00,0.00,0.00,0.00
2014-03-15 11:20:00,2,21267,0,0.00,2,2,0,2,18619,22404,1148,21764,0,0,0,0,0.00,0.00,0.00,0.00
2014-03-15 11:30:00,2,23822,0,0.00,2,2,0,2,20049,26078,1748,24300,0,0,0,0,0.00,0.00,0.00,0.00
2014-03-15 11:40:00,2,23871,0,0.00,2,2,0,2,18196,26726,2772,24840,0,0,0,0,0.00,0.00,0.00,0.00
2014-03-15 11:50:00,2,21540,0,0.00,2,2,0,2,19149,23512,1360,21738,0,0,0,0,0.00,0.00,0.00,0.00
2014-03-15 12:00:00,2,21244,0,0.00,2,2,0,2,19565,22854,1156,21502,0,0,0,0,0.00,0.00,0.00,0.00
2014-03-15 12:10:00,2,21316,0,0.00,2,2,0,2,18127,25620,2089,21062,0,0,0,0,0.00,0.00,0.00,0.00
2014-03-15 12:20:00,2,16477,0,0.00,2,2,0,2,13671,20457,2209,16018,0,0,0,0,0.00,0.00,0.00,0.00
2014-03-15 12:30:00,2,19803,0,0.00,2,2,0,2,18658,21279,784,19514,0,0,0,0,0.00,0.00,0.00,0.00
2014-03-15 12:40:00,2,19939,0,0.00,2,2,0,2,18130,23397,1570,19798,0,0,0,0,0.00,0.00,0.00,0.00
2014-03-15 12:50:00,2,22346,0,0.00,2,2,0,2,18765,25478,1897,22612,0,0,0,0,0.00,0.00,0.00,0.00
2014-03-15 13:00:00,2,24641,0,0.00,2,2,0,2,21112,27165,1824,24635,0,0,0,0,0.00,0.00,0.00,0.00
2014-03-15 13:10:00,2,25337,0,0.00,2,2,0,2,22954,29616,1970,25022,0,0,0,0,0.00,0.00,0.00,0.00
2014-03-15 13:20:00,2,24526,0,0.00,2,2,0,2,21172,28129,2514,24216,0,0,0,0,0.00,0.00,0.00,0.00
2014-03-15 13:30:00,2,21763,0,0.00,2,2,0,2,18516,23532,1471,22356,0,0,0,0,0.00,0.00,0.00,0.00
2014-03-15 13:40:00,2,20877,0,0.00,2,2,0,2,18856,22925,1438,20984,0,0,0,0,0.00,0.00,0.00,0.00
2014-03-15 13:50:00,2,20590,0,0.00,2,2,0,2,17649,22842,1831,20778,0,0,0,0,0.00,0.00,0.00,0.00
2014-03-15 14:00:00,2,22087,0,0.00,2,2,0,2,19665,23908,1186,22064,0,0,0,0,0.00,0.00,0.00,0.00
2014-03-15 14:10:00,2,20599,0,0.00,2,2,0,2,17982,21826,1229,21090,0,0,0,0,0.00,0.00,0.00,0.00
2014-03-15 14:20:00,2,19737,0,0.00,2,2,0,2,18723,21101,692,19619,0,0,0,0,0.00,0.00,0.00,0.00
2014-03-15 14:30:00,2,18880,0,0.00,2,2,0,2,17027,21603,1415,18380,0,0,0,0,0.00,0.00,0.00,0.00
2014-03-15 14:40:00,2,20902,0,0.00,2,2,0,2,17564,23886,1731,20750,0,0,0,0,0.00,0.00,0.00,0.00
2014-03-15 14:50:00,2,22062,0,0.00,2,2,0,2,19576,24750,1781,21624,0,0,0,0,0.00,0.00,0.00,0.00
2014-03-15 15:00:00,2,18892,0,0.00,2,2,0,2,17118,22364,1479,18714,0,0,0,0,0.00,0.00,0.00,0.00
2014-03-15 15:10:00,2,20921,0,0.00,2,2,0,2,18286,24443,2137,21165,0,0,0,0,0.00,0.00,0.00,0.00
2014-03-15 15:20:00,2,15653,36,0.06,2,2,0,2,10694,18181,2506,16726,0,71,36,36,0.00,0.35,0.11,0.00
2014-03-15 15:30:00,2,18297,72,0.01,2,2,0,2,16498,20118,1217,18583,71,77,2,71,0.00,0.05,0.02,0.00
2014-03-15 15:40:00,2,16992,78,0.01,2,2,0,2,14892,18683,1482,16930,77,78,0,78,0.00,0.05,0.02,0.00
2014-03-15 15:50:00,2,17737,16,0.00,2,2,0,2,16019,19827,1389,17402,0,78,31,0,0.00,0.00,0.00,0.00
2014-03-15 16:00:00,2,18548,0,0.00,2,2,0,2,16310,20620,1456,19084,0,0,0,0,0.00,0.00,0.00,0.00
2014-03-15 16:10:00,2,18921,0,0.00,2,2,0,2,14798,23681,3313,17642,0,0,0,0,0.00,0.00,0.00,0.00
2014-03-15 16:20:00,2,24465,0,0.00,2,2,0,2,20119,29748,3384,23468,0,0,0,0,0.00,0.00,0.00,0.00
2014-03-15 16:30:00,2,22162,0,0.00,2,2,0,2,19988,24206,1256,21813,0,0,0,0,0.00,0.00,0.00,0.00
2014-03-15 16:40:00,2,19714,0,0.00,2,2,0,2,16189,25129,2787,19430,0,0,0,0,0.00,0.00,0.00,0.00
2014-03-15 16:50:00,2,21260,0,0.00,2,2,0,2,19181,23315,1220,21226,0,0,0,0,0.00,0.00,0.00,0.00
2014-03-15 17:00:00,2,19199,0,0.00,2,2,0,2,17017,21271,1607,19786,0,0,0,0,0.00,0.00,0.00,0.00
2014-03-15 17:10:00,2,23443,0,0.00,2,2,0,2,21042,25275,1568,23846,0,0,0,0,0.00,0.00,0.00,0.00
2014-03-15 17:20:00,2,20694,0,0.00,2,2,0,2,17968,22703,1473,20949,0,0,0,0,0.00,0.00,0.00,0.00
2014-03-15 17:30:00,2,21379,0,0.00,2,2,0,2,18670,24226,1560,21391,0,0,0,0,0.00,0.00,0.00,0.00
2014-03-15 17:40:00,2,23179,0,0.00,2,2,0,2,19959,28805,2584,22461,0,0,0,0,0.00,0.00,0.00,0.00
2014-03-15 17:50:00,2,20179,0,0.00,2,2,0,2,17766,21995,1404,20122,0,0,0,0,0.00,0.00,0.00,0.00
2014-03-15 18:00:00,2,22637,0,0.00,2,2,0,2,18676,30342,3618,21922,0,0,0,0,0.00,0.00,0.00,0.00
2014-03-15 18:10:00,2,24686,0,0.00,2,2,0,2,22633,27526,1272,24778,0,0,0,0,0.00,0.00,0.00,0.00
2014-03-15 18:20:00,2,19778,0,0.00,2,2,0,2,17612,23470,1956,19266,0,0,0,0,0.00,0.00,0.00,0.00
2014-03-15 18:30:00,2,21467,0,0.00,2,2,0,2,19971,23219,923,21213,0,0,0,0,0.00,0.00,0.00,0.00
2014-03-15 18:40:00,2,22867,0,0.00,2,2,0,2,20631,24649,1063,22678,0,0,0,0,0.00,0.00,0.00,0.00
2014-03-15 18:50:00,2,24603,0,0.00,2,2,0,2,22155,27474,1474,24524,0,0,0,0,0.00,0.00,0.00,0.00
2014-03-15 19:00:00,2,24300,0,0.00,2,2,0,2,22362,26970,1241,24200,0,0,0,0,0.00,0.00,0.00,0.00
2014-03-15 19:10:00,2,23610,0,0.00,2,2,0,2,21390,24725,1061,23868,0,0,0,0,0.00,0.00,0.00,0.00
2014-03-15 19:20:00,2,22432,0,0.00,2,2,0,2,19690,25216,1712,22672,0,0,0,0,0.00,0.00,0.00,0.00
2014-03-15 19:30:00,2,20095,0,0.00,2,2,0,2,17838,22102,1464,20213,0,0,0,0,0.00,0.00,0.00,0.00
2014-03-15 19:40:00,2,21784,0,0.00,2,2,0,2,19249,24429,1422,21624,0,0,0,0,0.00,0.00,0.00,0.00
2014-03-15 19:50:00,2,24086,0,0.00,2,2,0,2,20824,26801,1711,24254,0,0,0,0,0.00,0.00,0.00,0.00
2014-03-15 20:00:00,2,22874,0,0.00,2,2,0,2,20568,24876,1592,22421,0,0,0,0,0.00,0.00,0.00,0.00
2014-03-15 20:10:00,2,23109,0,0.00,2,2,0,2,21426,25438,1279,23100,0,0,0,0,0.00,0.00,0.00,0.00
2014-03-15 20:20:00,2,22152,0,0.00,2,2,0,2,20046,24096,1079,22156,0,0,0,0,0.00,0.00,0.00,0.00
2014-03-15 20:30:00,2,22395,0,0.00,2,2,0,2,19497,24212,1584,22856,0,0,0,0,0.00,0.00,0.00,0.00
2014-03-15 20:40:00,2,22714,0,0.00,2,2,0,2,21062,23728,837,22702,0,0,0,0,0.00,0.00,0.00,0.00
2014-03-15 20:50:00,2,24335,0,0.00,2,2,0,2,22079,28130,1841,24067,0,0,0,0,0.00,0.00,0.00,0.00
2014-03-15 21:00:00,2,23966,0,0.00,2,2,0,2,20302,26908,2207,24912,0,0,0,0,0.00,0.00,0.00,0.00
2014-03-15 21:10:00,2,22808,0,0.00,2,2,0,2,20549,25535,1834,22699,0,0,0,0,0.00,0.00,0.00,0.00
2014-03-15 21:20:00,2,23507,0,0.00,2,2,0,2,20609,26218,1633,23494,0,0,0,0,0.00,0.00,0.00,0.00
2014-03-15 21:30:00,2,23164,0,0.00,2,2,0,2,21054,26294,1662,22580,0,0,0,0,0.00,0.00,0.00,0.00
2014-03-15 21:40:00,2,22756,0,0.00,2,2,0,2,21368,25861,1432,22312,0,0,0,0,0.00,0.00,0.00,0.00
2014-03-15 21:50:00,2,23279,0,0.00,2,2,0,2,20729,26247,1728,23287,0,0,0,0,0.00,0.00,0.00,0.00
2014-03-15 22:00:00,2,26124,0,0.00,2,2,0,2,21162,31234,3169,26316,0,0,0,0,0.00,0.00,0.00,0.00
2014-03-15 22:10:00,2,24633,0,0.00,2,2,0,2,21920,28423,1829,25144,0,0,0,0,0.00,0.00,0.00,0.00
2014-03-15 22:20:00,2,23356,0,0.00,2,2,0,2,20402,27438,2423,23180,0,0,0,0,0.00,0.00,0.00,0.00
2014-03-15 22:30:00,2,21339,0,0.00,2,2,0,2,17820,27638,3446,19315,0,0,0,0,0.00,0.00,0.00,0.00
2014-03-15 22:40:00,2,20595,0,0.00,2,2,0,2,16646,24672,2203,20208,0,0,0,0,0.00,0.00,0.00,0.00
2014-03-15 22:50:00,2,21234,0,0.00,2,2,0,2,16718,25029,2643,21413,0,0,0,0,0.00,0.00,0.00,0.00
2014-03-15 23:00:00,2,25869,0,0.00,2,2,0,2,20086,33282,3871,24506,0,0,0,0,0.00,0.00,0.00,0.00
2014-03-15 23:10:00,2,22138,0,0.00,2,2,0,2,15274,30152,4758,22238,0,0,0,0,0.00,0.00,0.00,0.00
2014-03-15 23:20:00,2,27060,0,0.00,2,2,0,2,21508,35354,4281,25074,0,0,0,0,0.00,0.00,0.00,0.00
2014-03-15 23:30:00,2,26436,0,0.00,2,2,0,2,22473,31195,2832,26618,0,0,0,0,0.00,0.00,0.00,0.00
2014-03-15 23:40:00,2,26749,0,0.00,2,2,0,2,17952,35216,5365,27112,0,0,0,0,0.00,0.00,0.00,0.00
2014-03-15 23:50:00,2,26160,0,0.00,2,2,0,2,18417,37000,5284,25658,0,0,0,0,0.00,0.00,0.00,0.00
